Location: Rotheul
(50.2849°N, 11.2349°E)
Time: 01:29:51
(UTC+02:00)

ISS - Pass Details

Date: 19 July 2018
Orbit: 402 x 408 km, 51.6° (Epoch: 22 July)

Event Time Altitude Azimuth Distance (km) Brightness Sun altitude
Rises 23:00:56 0° 222° (SW) 2,311 -0.1 -12.5°
Reaches altitude 10° 23:03:08 10° 212° (SSW) 1,456 -1.3 -12.7°
Maximum altitude 23:06:03 31° 148° (SSE) 739 -3.1 -12.9°
Drops below altitude 10° 23:09:01 10° 84° (E) 1,467 -1.3 -13.2°
Sets 23:11:14 0° 74° (ENE) 2,331 -0.1 -13.4°
